Hourly Data Report for October 02, 2017

All times are specified in Local Standard Time (LST). Add 1 hour to adjust for Daylight Saving Time where and when it is observed.

KENTVILLE CDA CS
NOVA SCOTIA

45°04'00.000" N
64°29'00.000" W
48.70 m
8202810
71671
XKT

Download Data

Hourly Data (October 2017)
Hourly Data Report for October 2, 2017
Temp Definition
°C
Dew Point Temp Definition
°C
Rel Hum Definition
%
Wind Dir Definition
10's deg

Wind Spd Definition
km/h
Visibility Definition
km
Stn Press Definition
kPa
Hmdx Definition


Wind Chill Definition


Weather Definition


TIME
00:00 9.7 6.5 80 26 2   101.36     LegendNANA
01:00 8.9 6.7 86 23 3   101.38     LegendNANA
02:00 9.4 6.6 83 21 8   101.36     LegendNANA
03:00 8.2 6.0 86 22 3   101.37     LegendNANA
04:00 7.8 6.6 92 20 4   101.45     LegendNANA
05:00 7.1 5.9 92 23 3   101.53     LegendNANA
06:00 9.0 6.3 83 32 9   101.61     LegendNANA
07:00 9.4 6.1 80 34 6   101.72     LegendNANA
08:00 11.3 6.8 74 35 11   101.80     LegendNANA
09:00 12.2 5.4 63 1 14   101.88     LegendNANA
10:00 12.6 4.7 59 1 15   101.94     LegendNANA
11:00 12.4 4.0 56 34 15   101.97     LegendNANA
12:00 12.1 3.3 55 35 17   102.04     LegendNANA
13:00 12.6 2.4 50 35 20   102.07     LegendNANA
14:00 12.6 2.0 49 35 19   102.12     LegendNANA
15:00 10.7 1.3 52 36 19   102.21     LegendNANA
16:00 10.5 2.1 56 36 17   102.23     LegendNANA
17:00 10.4 2.1 57 1 17   102.33     LegendNANA
18:00 8.6 1.8 62 2 12   102.47     LegendNANA
19:00 7.3 1.7 67 1 10   102.58     LegendNANA
20:00 6.4 1.8 72 36 8   102.66     LegendNANA
21:00 6.1 1.9 75 36 6   102.73     LegendNANA
22:00 4.4 2.1 85 36 4   102.76     LegendNANA
23:00 3.3 2.2 93 20 6   102.81     LegendNANA

Notes on Data Quality.

Legend

  • E = Estimated
  • M = Missing
  • NA = Not Available
  • ‡ = Partner data that is not subject to review by the National Climate Archives
Date modified: